Startpagina
METAR-TAF:

METAR-TAF

Vliegvelden :

Erie, Colorado, Verenigde Staten

breedte: 40-00-37N, lengte: 105-02-53W, hoogte: 1564 m

Actueel weer

Dit bericht is 25 minuten geleden gemaakt, om 03:30 UTC
Weinig wind
Temperatuur 6°C
Vochtigheid 61%
Druk 1031 hPa
Zicht: 16.1 km
Onbewolkt

METAR: KEIK 200330Z AUTO 00000KT 10SM CLR 06/M01 A3044 RMK AO2 T00641008

Tijdstip: 21:55 (03:55 UTC)


TAF: ontbreekt

Waarnemingen en weersverwachtingen van meer dan 4000 vliegvelden (METAR en TAF).

De beschikbare stations zijn de gele en rode punten op de kaart.

Ga met uw muis naar het station om de naam te zien.

Klik dan om waarnemingen en weersverwachtingen te zien.

kaart wijzigen: klik op de groene knoppen met een zwart kruis om in te zoomen, op de groene knop met een streepje om uit te zoomen of op de groene pijlen voor aangrenzende kaarten.


METAR-TAF: